Flag for Morocco Weather past 2 weeks in Rabat, Morocco

70 °F


Feels Like: 70 °F
Forecast: 57 / 73 °F
Wind: 1 mph from North

Location: Rabat-Sale

Current Time: Oct 9, 2015 at 10:47:36 AM

Latest Report: Oct 9, 2015 at 10:00 AM

Visibility: 10 mi

Pressure: 29.95 "Hg

Humidity: 53%

Dew point: 52 °F

Location of RabatLocation

Historic Weather in Rabat — Graph


Rabat temperature yesterday

Maximum temperature yesterday: 72 °F (at 11:00 AM)
Minimum temperature yesterday: 55 °F (at 12:30 AM)
Average temperature yesterday: 63 °F

Past Weeks' High & Low Weather Summary

High93 °F (Oct 4, 2:30 PM)100% (Oct 7, 7:00 AM)30.24 "Hg (Oct 7, 7:00 AM)
Low52 °F (Oct 9, 6:00 AM)23% (Oct 4, 11:30 AM)29.86 "Hg (Sep 28, 3:30 PM)
Average69 °F73%30.03 "Hg
* Reported Sep 24 10:00 AM — Oct 9 10:00 AM, Rabat, Weather by CustomWeather, © 2015

Note: Actual official high and low records may vary slightly from our data, if they occured in-between our weather recording intervals... More about our weather records


Rabat weather history for previous 24 hours

Time TempWeatherWind HumidityBarometerVisibility
10:00 AM
Fri, Oct 9
70 °FSunny.1 mph53%29.95 "Hg10 mi
9:30 AM66 °FSunny.2 mph64%29.95 "Hg10 mi
9:00 AM61 °FSunny.2 mph83%29.95 "Hg10 mi
8:30 AM57 °FPassing clouds.3 mph88%29.92 "HgN/A
8:00 AM54 °FPassing clouds.3 mph94%29.92 "HgN/A
7:30 AM52 °FSunny.1 mph88%29.92 "Hg10 mi
7:00 AM52 °FScattered clouds.2 mph94%29.92 "HgN/A
6:30 AM52 °FScattered clouds.No wind94%29.92 "HgN/A
6:00 AM52 °FPassing clouds.No wind88%29.92 "HgN/A
5:00 AM54 °FPassing clouds.2 mph88%29.92 "HgN/A
4:30 AM54 °FPassing clouds.2 mph88%29.92 "HgN/A
4:00 AM54 °FPassing clouds.3 mph88%29.92 "HgN/A
3:30 AM54 °FPassing clouds.3 mph88%29.95 "HgN/A
3:00 AM54 °FPassing clouds.2 mph94%29.95 "HgN/A
2:30 AM55 °FPassing clouds.2 mph88%29.95 "HgN/A
2:00 AM55 °FPassing clouds.3 mph88%29.95 "HgN/A
1:30 AM55 °FPassing clouds.3 mph88%29.95 "HgN/A
1:00 AM57 °FPassing clouds.3 mph82%29.98 "HgN/A
12:30 AM55 °FPassing clouds.3 mph82%29.98 "HgN/A
12:00 AM57 °FPassing clouds.5 mph77%29.98 "HgN/A
11:30 PM
Thu, Oct 8
55 °FPassing clouds.2 mph82%29.98 "HgN/A
11:00 PM55 °FPassing clouds.2 mph77%30.01 "HgN/A
10:30 PM55 °FPassing clouds.No wind82%30.01 "HgN/A
10:00 PM57 °FPassing clouds.1 mph82%30.01 "HgN/A
9:30 PM59 °FPassing clouds.1 mph72%30.01 "HgN/A
9:00 PM63 °FPassing clouds.3 mph68%30.01 "HgN/A
8:30 PM64 °FPassing clouds.3 mph64%30.01 "HgN/A
8:00 PM66 °FPassing clouds.6 mph64%29.98 "HgN/A
6:30 PM68 °FPassing clouds.7 mph60%29.98 "HgN/A
6:00 PM68 °FScattered clouds.9 mph60%29.98 "HgN/A
5:30 PM68 °FScattered clouds.9 mph60%29.98 "HgN/A
5:00 PM70 °FScattered clouds.10 mph57%29.98 "HgN/A
4:30 PM70 °FScattered clouds.13 mph57%29.98 "HgN/A
4:00 PM72 °FScattered clouds.13 mph53%29.98 "HgN/A
3:30 PM70 °FScattered clouds.15 mph57%29.98 "HgN/A
3:00 PM72 °FScattered clouds.15 mph57%29.98 "HgN/A
2:30 PM72 °FScattered clouds.13 mph57%29.98 "HgN/A
2:00 PM72 °FScattered clouds.10 mph53%30.01 "HgN/A
1:30 PM72 °FScattered clouds.10 mph53%30.01 "HgN/A
1:00 PM72 °FScattered clouds.9 mph53%30.01 "HgN/A
12:30 PM72 °FScattered clouds.9 mph53%30.01 "HgN/A
12:00 PM72 °FScattered clouds.7 mph50%30.01 "HgN/A
11:30 AM72 °FScattered clouds.6 mph47%30.01 "HgN/A
11:00 AM72 °FScattered clouds.2 mph50%30.01 "HgN/A
10:30 AM70 °FScattered clouds.5 mph53%30.01 "HgN/A
10:00 AM70 °FScattered clouds.3 mph53%30.01 "HgN/A
Weather by CustomWeather, © 2015

See weather overviewHow to use our weather pages